TimeCDT,TemperatureF,Dew PointF,Humidity,Sea Level PressureIn,VisibilityMPH,Wind Direction,Wind SpeedMPH,Gust SpeedMPH,PrecipitationIn,Events,Conditions,WindDirDegrees,DateUTC
12:56 AM,70.9,66.9,87,30.13,10.0,Calm,Calm,-,N/A,,Mostly Cloudy,0,2013-07-04 05:56:00
1:49 AM,71.6,68.0,88,30.11,2.5,SSE,9.2,-,0.00,Rain,Rain,160,2013-07-04 06:49:00
1:56 AM,70.0,68.0,93,30.13,2.5,SSE,8.1,-,0.00,Rain,Light Rain,150,2013-07-04 06:56:00
2:09 AM,69.8,69.8,100,30.11,1.2,South,5.8,-,0.00,Rain,Heavy Rain,180,2013-07-04 07:09:00
2:20 AM,69.8,69.8,100,30.11,2.0,SW,3.5,-,0.00,Rain,Light Rain,220,2013-07-04 07:20:00
2:24 AM,69.8,69.8,100,30.11,4.0,WSW,3.5,-,0.00,Rain,Rain,240,2013-07-04 07:24:00
2:40 AM,69.8,69.8,100,30.11,6.0,Calm,Calm,-,0.00,Rain,Light Rain,0,2013-07-04 07:40:00
2:56 AM,70.0,68.9,96,30.12,10.0,Calm,Calm,-,0.00,,Overcast,0,2013-07-04 07:56:00
3:20 AM,69.8,69.8,100,30.10,10.0,East,4.6,-,N/A,,Mostly Cloudy,100,2013-07-04 08:20:00
3:56 AM,70.0,68.9,96,30.12,10.0,East,3.5,-,N/A,,Mostly Cloudy,80,2013-07-04 08:56:00
4:24 AM,69.8,69.8,100,30.10,10.0,East,5.8,-,N/A,,Overcast,90,2013-07-04 09:24:00
4:56 AM,70.0,68.9,96,30.12,10.0,ESE,5.8,-,N/A,,Overcast,110,2013-07-04 09:56:00
5:18 AM,69.8,69.8,100,30.10,2.0,East,4.6,-,0.00,Rain,Rain,90,2013-07-04 10:18:00
5:28 AM,69.8,69.8,100,30.10,3.0,East,5.8,-,0.00,Rain,Light Rain,90,2013-07-04 10:28:00
5:43 AM,69.8,69.8,100,30.10,10.0,East,3.5,-,0.00,Rain,Light Rain,100,2013-07-04 10:43:00
5:56 AM,70.0,68.9,96,30.12,10.0,ESE,4.6,-,0.00,Rain,Light Rain,110,2013-07-04 10:56:00
6:14 AM,69.8,69.8,100,30.10,3.0,SE,3.5,-,0.00,Rain,Rain,140,2013-07-04 11:14:00
6:38 AM,69.8,69.8,100,30.11,2.0,SSE,5.8,-,0.00,Rain,Heavy Rain,150,2013-07-04 11:38:00
6:44 AM,69.8,69.8,100,30.11,1.5,South,3.5,-,0.00,Rain,Heavy Rain,190,2013-07-04 11:44:00
6:56 AM,68.9,68.9,100,30.12,2.5,Calm,Calm,-,0.00,Rain,Light Rain,0,2013-07-04 11:56:00
7:56 AM,68.9,68.9,100,30.14,2.0,Calm,Calm,-,0.00,Rain,Heavy Rain,0,2013-07-04 12:56:00
7:59 AM,69.8,69.8,100,30.12,2.0,Variable,3.5,-,0.00,Rain,Heavy Rain,0,2013-07-04 12:59:00
8:06 AM,69.8,69.8,100,30.12,2.0,West,4.6,-,0.00,Rain,Heavy Rain,260,2013-07-04 13:06:00
8:35 AM,69.8,69.8,100,30.12,3.0,SSE,6.9,-,0.00,Rain,Light Rain,160,2013-07-04 13:35:00
8:44 AM,69.8,69.8,100,30.12,3.0,SSE,6.9,-,0.00,Rain,Rain,160,2013-07-04 13:44:00
8:56 AM,70.0,68.9,96,30.13,4.0,SE,8.1,-,0.00,Rain,Light Rain,140,2013-07-04 13:56:00
9:05 AM,69.8,69.8,100,30.11,8.0,SE,8.1,-,0.00,Rain,Light Rain,140,2013-07-04 14:05:00
9:48 AM,69.8,66.2,88,30.12,1.5,SE,4.6,-,0.00,Rain,Heavy Rain,140,2013-07-04 14:48:00
9:56 AM,68.9,66.9,93,30.13,2.0,ESE,4.6,-,0.00,Rain,Heavy Rain,110,2013-07-04 14:56:00
10:11 AM,69.8,68.0,94,30.12,3.0,SSE,5.8,-,0.00,Rain,Rain,150,2013-07-04 15:11:00
10:33 AM,68.0,68.0,100,30.13,3.0,Calm,Calm,-,0.00,Rain,Heavy Rain,0,2013-07-04 15:33:00
10:41 AM,68.0,68.0,100,30.13,-9999.0,East,4.6,-,0.00,Rain,Heavy Rain,80,2013-07-04 15:41:00
10:46 AM,68.0,68.0,100,30.13,1.0,East,8.1,-,0.00,Rain,Heavy Rain,80,2013-07-04 15:46:00
10:56 AM,66.9,66.9,100,30.14,1.0,East,8.1,-,0.00,Rain,Heavy Rain,90,2013-07-04 15:56:00
10:59 AM,66.2,66.2,100,30.13,1.8,ENE,6.9,-,0.00,Rain,Heavy Rain,70,2013-07-04 15:59:00
11:03 AM,66.2,66.2,100,30.13,2.5,ENE,6.9,-,0.00,Rain,Rain,70,2013-07-04 16:03:00
11:05 AM,66.2,66.2,100,30.13,3.0,ENE,4.6,-,0.00,Rain,Rain,60,2013-07-04 16:05:00
11:09 AM,68.0,68.0,100,30.13,3.0,ENE,6.9,-,0.00,Rain,Heavy Rain,60,2013-07-04 16:09:00
11:44 AM,66.2,66.2,100,30.14,3.0,East,6.9,-,0.00,Rain,Rain,90,2013-07-04 16:44:00
11:56 AM,66.9,65.8,96,30.17,3.0,ENE,5.8,-,0.00,Rain,Heavy Rain,70,2013-07-04 16:56:00
12:31 PM,66.2,66.2,100,30.12,3.0,East,5.8,-,0.00,Rain,Heavy Rain,100,2013-07-04 17:31:00
12:56 PM,66.9,66.9,100,30.14,3.0,ESE,9.2,-,0.00,Rain,Rain,120,2013-07-04 17:56:00
1:56 PM,68.0,66.9,96,30.13,3.0,SSE,9.2,-,0.00,Rain,Rain,160,2013-07-04 18:56:00
2:00 PM,68.0,66.2,94,30.12,1.8,South,9.2,-,0.00,Rain,Heavy Rain,170,2013-07-04 19:00:00
2:56 PM,68.0,68.0,100,30.12,1.8,Calm,Calm,-,0.00,Rain,Light Rain,0,2013-07-04 19:56:00
3:03 PM,69.8,68.0,94,30.10,7.0,North,3.5,-,0.00,Rain,Light Rain,350,2013-07-04 20:03:00
3:56 PM,69.8,69.8,100,30.09,5.0,East,6.9,-,N/A,Rain,Rain,80,2013-07-04 20:56:00
4:12 PM,69.8,69.8,100,30.09,3.0,East,6.9,-,0.00,Rain,Heavy Rain,80,2013-07-04 21:12:00
4:16 PM,69.8,69.8,100,30.08,1.8,ENE,10.4,-,0.00,Rain,Heavy Rain,60,2013-07-04 21:16:00
4:28 PM,69.8,69.8,100,30.08,3.0,ENE,8.1,-,0.00,Rain,Rain,60,2013-07-04 21:28:00
4:36 PM,69.8,69.8,100,30.08,4.0,East,9.2,-,0.00,Rain,Rain,100,2013-07-04 21:36:00
4:56 PM,68.9,68.0,97,30.10,2.5,East,5.8,-,0.00,Rain,Rain,80,2013-07-04 21:56:00
5:05 PM,68.0,68.0,100,30.08,3.0,East,8.1,-,0.00,Rain,Rain,80,2013-07-04 22:05:00
5:21 PM,69.8,68.0,94,30.07,5.0,East,6.9,-,0.00,Rain,Light Rain,80,2013-07-04 22:21:00
5:56 PM,68.9,68.0,97,30.09,10.0,East,4.6,-,0.00,Rain,Light Rain,90,2013-07-04 22:56:00
6:22 PM,69.8,66.2,88,30.08,10.0,East,4.6,-,0.00,Rain,Light Rain,90,2013-07-04 23:22:00
6:30 PM,69.8,68.0,94,30.08,10.0,East,4.6,-,0.00,Rain,Light Rain,90,2013-07-04 23:30:00
6:37 PM,69.8,68.0,94,30.08,5.0,East,3.5,-,0.00,Rain,Light Rain,100,2013-07-04 23:37:00
6:56 PM,68.9,68.0,97,30.10,5.0,East,3.5,-,0.00,Rain,Light Rain,80,2013-07-04 23:56:00
7:56 PM,68.9,68.0,97,30.09,7.0,ENE,4.6,-,0.00,Rain,Light Rain,70,2013-07-05 00:56:00
8:20 PM,69.8,68.0,94,30.07,10.0,ENE,4.6,-,0.00,,Overcast,60,2013-07-05 01:20:00
8:47 PM,68.0,66.2,94,30.08,10.0,Calm,Calm,-,0.00,,Mostly Cloudy,0,2013-07-05 01:47:00
8:56 PM,68.0,68.0,100,30.11,10.0,NW,3.5,-,0.00,,Mostly Cloudy,320,2013-07-05 01:56:00
9:56 PM,68.0,68.0,100,30.09,6.0,East,4.6,-,0.00,Rain,Light Rain,80,2013-07-05 02:56:00
10:56 PM,68.0,66.9,96,30.10,10.0,Calm,Calm,-,0.00,,Scattered Clouds,0,2013-07-05 03:56:00
11:03 PM,68.0,66.2,94,30.08,8.0,Calm,Calm,-,N/A,,Mostly Cloudy,0,2013-07-05 04:03:00
11:25 PM,68.0,68.0,100,30.08,7.0,Calm,Calm,-,N/A,,Overcast,0,2013-07-05 04:25:00
11:56 PM,68.0,68.0,100,30.10,8.0,Calm,Calm,-,N/A,,Mostly Cloudy,0,2013-07-05 04:56:00